HK36M SKBQ-TNCA

Flight info

Callsign HK36M
Flight time N/A
Altitude 27000
Route STA4C STA UL220 DATOR DATOR2A
Aircraft BE9L/L-SBDFGRY/SB1

Departure

Time 2026-04-25 01:43
Airport Ernesto Cortissoz International Airport (SKBQ)

Arrival

Time N/A
Airport Queen Beatrix International Airport (TNCA)
Time Latitude Longitude Altitude Speed Heading
2026-04-25 01:24 10.89491 -74.77176 56 ft 0 kts 124°
2026-04-25 01:30 10.89495 -74.77181 56 ft 2 kts 124°
2026-04-25 01:31 10.89503 -74.77193 54 ft 2 kts 124°
2026-04-25 01:31 10.89510 -74.77204 56 ft 2 kts 124°
2026-04-25 01:31 10.89516 -74.77212 56 ft 0 kts 124°
2026-04-25 01:33 10.89509 -74.77212 56 ft 2 kts 228°
2026-04-25 01:34 10.89505 -74.77251 56 ft 10 kts 275°
2026-04-25 01:34 10.89494 -74.77283 57 ft 6 kts 222°
2026-04-25 01:34 10.89438 -74.77324 58 ft 13 kts 210°
2026-04-25 01:34 10.89370 -74.77365 59 ft 14 kts 208°
2026-04-25 01:35 10.89278 -74.77418 61 ft 16 kts 210°
2026-04-25 01:35 10.89200 -74.77463 62 ft 1 kts 205°
2026-04-25 01:35 10.89182 -74.77472 62 ft 6 kts 206°
2026-04-25 01:35 10.89123 -74.77497 60 ft 12 kts 201°
2026-04-25 01:36 10.89059 -74.77547 61 ft 14 kts 222°
2026-04-25 01:36 10.88989 -74.77608 61 ft 12 kts 220°
2026-04-25 01:36 10.88909 -74.77677 67 ft 18 kts 220°
2026-04-25 01:36 10.88831 -74.77745 64 ft 12 kts 219°
2026-04-25 01:37 10.88758 -74.77805 70 ft 16 kts 219°
2026-04-25 01:37 10.88692 -74.77861 68 ft 9 kts 220°
2026-04-25 01:37 10.88630 -74.77914 73 ft 15 kts 220°
2026-04-25 01:37 10.88554 -74.77979 74 ft 12 kts 220°
2026-04-25 01:38 10.88487 -74.78036 76 ft 11 kts 219°
2026-04-25 01:38 10.88428 -74.78100 77 ft 9 kts 249°
2026-04-25 01:38 10.88428 -74.78174 78 ft 12 kts 282°
2026-04-25 01:38 10.88439 -74.78239 78 ft 12 kts 267°
2026-04-25 01:39 10.88388 -74.78324 84 ft 15 kts 222°
2026-04-25 01:39 10.88307 -74.78397 81 ft 17 kts 220°
2026-04-25 01:39 10.88244 -74.78451 83 ft 12 kts 220°
2026-04-25 01:39 10.88166 -74.78516 87 ft 16 kts 220°
2026-04-25 01:40 10.88084 -74.78587 88 ft 14 kts 220°
2026-04-25 01:40 10.88005 -74.78654 87 ft 16 kts 220°
2026-04-25 01:40 10.87937 -74.78712 89 ft 10 kts 222°
2026-04-25 01:40 10.87916 -74.78781 90 ft 8 kts 265°
2026-04-25 01:41 10.87913 -74.78816 90 ft 2 kts 266°
2026-04-25 01:41 10.87911 -74.78850 91 ft 8 kts 266°
2026-04-25 01:41 10.87908 -74.78921 92 ft 7 kts 274°
2026-04-25 01:41 10.87964 -74.78938 92 ft 14 kts 31°
2026-04-25 01:42 10.88075 -74.78845 90 ft 32 kts 38°
2026-04-25 01:42 10.88378 -74.78585 82 ft 83 kts 40°
2026-04-25 01:42 10.88929 -74.78112 145 ft 118 kts 41°
2026-04-25 01:42 10.89556 -74.77544 574 ft 120 kts 43°
2026-04-25 01:43 10.90208 -74.76948 841 ft 137 kts 43°
2026-04-25 01:43 10.90912 -74.76294 1285 ft 138 kts 41°
2026-04-25 01:43 10.91518 -74.75521 1607 ft 144 kts 84°
2026-04-25 01:43 10.91462 -74.74498 2044 ft 146 kts 110°
2026-04-25 01:44 10.90896 -74.73669 2512 ft 145 kts 140°
2026-04-25 01:44 10.90130 -74.72983 2943 ft 148 kts 141°
2026-04-25 01:44 10.89323 -74.72341 3388 ft 150 kts 145°
2026-04-25 01:44 10.88463 -74.71742 3859 ft 150 kts 149°
2026-04-25 01:45 10.87557 -74.71194 4327 ft 152 kts 153°
2026-04-25 01:45 10.86612 -74.70703 4805 ft 153 kts 156°
2026-04-25 01:45 10.85643 -74.70240 5249 ft 155 kts 149°
2026-04-25 01:45 10.84885 -74.69461 5705 ft 158 kts 123°
2026-04-25 01:46 10.84510 -74.68430 6160 ft 160 kts 97°
2026-04-25 01:46 10.84598 -74.67301 6596 ft 162 kts 74°
2026-04-25 01:46 10.84903 -74.66189 7005 ft 164 kts 75°
2026-04-25 01:46 10.85199 -74.65065 7448 ft 165 kts 75°
2026-04-25 01:47 10.85504 -74.63938 7889 ft 166 kts 75°
2026-04-25 01:47 10.85813 -74.62798 8331 ft 168 kts 75°
2026-04-25 01:47 10.86124 -74.61645 8770 ft 170 kts 75°
2026-04-25 01:47 10.86439 -74.60483 9225 ft 171 kts 75°
2026-04-25 01:48 10.86751 -74.59324 9672 ft 173 kts 75°
2026-04-25 01:48 10.87072 -74.58137 10097 ft 174 kts 75°
2026-04-25 01:48 10.87394 -74.56944 10518 ft 176 kts 75°
2026-04-25 01:48 10.87718 -74.55742 10942 ft 177 kts 75°
2026-04-25 01:49 10.88045 -74.54530 11371 ft 178 kts 75°
2026-04-25 01:49 10.88374 -74.53311 11804 ft 179 kts 75°
2026-04-25 01:49 10.88769 -74.52107 12232 ft 180 kts 68°
2026-04-25 01:49 10.89240 -74.50920 12678 ft 182 kts 68°
2026-04-25 01:50 10.89697 -74.49713 13124 ft 183 kts 69°
2026-04-25 01:50 10.90142 -74.48511 13574 ft 184 kts 69°
2026-04-25 01:50 10.90597 -74.47282 13990 ft 186 kts 69°
2026-04-25 01:50 10.91055 -74.46045 14379 ft 187 kts 69°
2026-04-25 01:51 10.91517 -74.44797 14786 ft 189 kts 69°
2026-04-25 01:51 10.91983 -74.43542 15195 ft 190 kts 69°
2026-04-25 01:51 10.92450 -74.42277 15606 ft 192 kts 69°
2026-04-25 01:51 10.92916 -74.41021 16017 ft 193 kts 69°
2026-04-25 01:52 10.93390 -74.39740 16435 ft 194 kts 69°
2026-04-25 01:52 10.93868 -74.38449 16858 ft 196 kts 69°
2026-04-25 01:52 10.94350 -74.37148 17276 ft 197 kts 69°
2026-04-25 01:52 10.94837 -74.35832 17723 ft 199 kts 69°
2026-04-25 01:53 10.95326 -74.34509 18152 ft 200 kts 69°
2026-04-25 01:53 10.95819 -74.33175 18526 ft 202 kts 69°
2026-04-25 01:53 10.96311 -74.31846 18893 ft 204 kts 69°
2026-04-25 01:53 10.96812 -74.30491 19265 ft 205 kts 69°
2026-04-25 01:54 10.97318 -74.29122 19643 ft 207 kts 69°
2026-04-25 01:54 10.97828 -74.27743 20022 ft 209 kts 69°
2026-04-25 01:54 10.98343 -74.26352 20405 ft 211 kts 69°
2026-04-25 01:54 10.98861 -74.24949 20790 ft 212 kts 69°
2026-04-25 01:55 10.99378 -74.23550 21172 ft 214 kts 69°
2026-04-25 01:55 10.99905 -74.22124 21568 ft 216 kts 69°
2026-04-25 01:55 11.00436 -74.20686 21969 ft 218 kts 69°
2026-04-25 01:55 11.00972 -74.19234 22383 ft 220 kts 68°
2026-04-25 01:56 11.01514 -74.17768 22784 ft 222 kts 68°
2026-04-25 01:56 11.02061 -74.16286 23193 ft 224 kts 68°
2026-04-25 01:56 11.02611 -74.14796 23574 ft 226 kts 68°
2026-04-25 01:56 11.03167 -74.13289 23933 ft 227 kts 69°
2026-04-25 01:57 11.04281 -74.10269 24600 ft 230 kts 69°
2026-04-25 01:57 11.04845 -74.08743 24946 ft 231 kts 69°
2026-04-25 01:57 11.05411 -74.07206 25297 ft 232 kts 69°
2026-04-25 01:58 11.05981 -74.05660 25710 ft 234 kts 70°
2026-04-25 01:58 11.06361 -74.04631 25937 ft 234 kts 70°
2026-04-25 01:58 11.07122 -74.02565 26398 ft 236 kts 70°
2026-04-25 01:58 11.07702 -74.00994 26726 ft 238 kts 70°
2026-04-25 01:59 11.08292 -73.99395 26908 ft 247 kts 70°
2026-04-25 01:59 11.08699 -73.98286 26946 ft 256 kts 71°
2026-04-25 01:59 11.09337 -73.96549 26970 ft 268 kts 70°
2026-04-25 01:59 11.10008 -73.94731 26969 ft 278 kts 71°
2026-04-25 02:00 11.10697 -73.92861 27013 ft 285 kts 70°
2026-04-25 02:00 11.11403 -73.90945 27017 ft 291 kts 70°
2026-04-25 02:00 11.12119 -73.88997 27015 ft 295 kts 70°
2026-04-25 02:00 11.12832 -73.87059 27024 ft 297 kts 70°
2026-04-25 02:01 11.13562 -73.85079 27016 ft 299 kts 70°
2026-04-25 02:01 11.14294 -73.83089 27021 ft 301 kts 70°
2026-04-25 02:01 11.15030 -73.81087 27012 ft 301 kts 70°
2026-04-25 02:01 11.15766 -73.79085 26998 ft 302 kts 70°
2026-04-25 02:02 11.16501 -73.77084 26996 ft 302 kts 70°
2026-04-25 02:02 11.17239 -73.75077 26997 ft 302 kts 70°
2026-04-25 02:02 11.17977 -73.73070 26994 ft 302 kts 70°
2026-04-25 02:02 11.18713 -73.71064 26996 ft 302 kts 70°
2026-04-25 02:03 11.19450 -73.69058 26992 ft 302 kts 70°
2026-04-25 02:03 11.20177 -73.67079 26995 ft 302 kts 70°
2026-04-25 02:03 11.20915 -73.65068 26997 ft 302 kts 70°
2026-04-25 02:03 11.21651 -73.63059 27005 ft 302 kts 70°
2026-04-25 02:04 11.22391 -73.61044 26997 ft 303 kts 70°
2026-04-25 02:04 11.23120 -73.59057 26998 ft 304 kts 70°
2026-04-25 02:04 11.23860 -73.57041 26998 ft 304 kts 70°
2026-04-25 02:04 11.24600 -73.55021 26999 ft 304 kts 70°
2026-04-25 02:05 11.25342 -73.52996 26998 ft 304 kts 70°
2026-04-25 02:05 11.26083 -73.50974 26986 ft 304 kts 70°
2026-04-25 02:05 11.26823 -73.48957 26987 ft 304 kts 70°
2026-04-25 02:05 11.27563 -73.46936 26987 ft 304 kts 71°
2026-04-25 02:06 11.28293 -73.44944 26949 ft 304 kts 70°
2026-04-25 02:06 11.29033 -73.42921 26949 ft 304 kts 70°
2026-04-25 02:06 11.29774 -73.40896 26949 ft 304 kts 70°
2026-04-25 02:06 11.30515 -73.38872 26950 ft 304 kts 70°
2026-04-25 02:07 11.31245 -73.36877 26947 ft 304 kts 71°
2026-04-25 02:07 11.31983 -73.34858 26947 ft 304 kts 70°
2026-04-25 02:07 11.32723 -73.32836 26947 ft 304 kts 71°
2026-04-25 02:07 11.33463 -73.30811 26947 ft 304 kts 70°
2026-04-25 02:08 11.34201 -73.28792 26948 ft 304 kts 71°
2026-04-25 02:08 11.34938 -73.26775 26948 ft 304 kts 71°
2026-04-25 02:08 11.35676 -73.24758 26948 ft 303 kts 71°
2026-04-25 02:08 11.36413 -73.22739 26946 ft 303 kts 71°
2026-04-25 02:09 11.37140 -73.20746 26943 ft 303 kts 71°
2026-04-25 02:09 11.37876 -73.18730 26943 ft 303 kts 71°
2026-04-25 02:09 11.38612 -73.16716 26943 ft 303 kts 71°
2026-04-25 02:09 11.39348 -73.14698 26943 ft 303 kts 71°
2026-04-25 02:10 11.40084 -73.12681 26924 ft 303 kts 71°
2026-04-25 02:10 11.40819 -73.10666 26922 ft 303 kts 71°
2026-04-25 02:10 11.41553 -73.08652 26923 ft 303 kts 71°
2026-04-25 02:10 11.42289 -73.06632 26923 ft 303 kts 71°
2026-04-25 02:11 11.42528 -73.05978 26922 ft 303 kts 71°